GFSNGP_850_temp_129.txt.gz
Temp
4 5 6 7 7 9 8 8 5 8 8 8 8 5 4 5 7 10 12 12 11 9 9 9 9 9 9 8 9 9 9 10 9 9 9 9 9 10 10 11 11 11 11 11
3 5 6 7 7 8 8 9 9 9 9 10 8 6 5 6 8 8 7 7 7 6 6 6 6 7 8 9 9 9 8 8 8 8 8 9 9 10 10 10 11 11 11 10
4 6 5 5 6 7 7 9 8 7 5 7 7 7 5 4 5 5 5 4 4 4 4 4 5 5 7 8 7 7 6 7 6 7 8 8 9 9 9 10 11 10 10 10
3 4 3 5 4 4 4 3 3 5 4 4 5 5 3 2 2 2 3 3 4 4 3 3 4 5 6 5 5 3 4 4 5 5 6 8 8 8 9 10 10 10 10 10
1 3 5 2 3 2 3 3 2 3 4 3 2 4 2 1 1 1 1 1 1 1 1 1 2 2 3 3 1 -0 -0 1 3 4 5 7 8 7 8 10 10 9 10 10
3 3 3 1 2 4 2 3 0 1 2 1 2 3 2 0 -0 -0 0 -0 0 0 0 -0 -1 -1 -0 0 0 0 0 1 2 3 4 6 7 7 7 8 10 9 9 9
3 2 2 0 2 3 3 -0 -1 -1 -0 -0 1 -0 -1 -1 -0 -0 -1 -1 -1 -1 -2 -2 -2 -2 -2 -2 -1 -0 1 2 3 3 3 4 6 6 7 7 9 9 9 9
0 -3 -1 -1 1 -0 -1 -1 -1 -1 -1 -1 -1 -1 -1 -1 -1 -2 -2 -3 -3 -4 -4 -4 -5 -5 -4 -2 -2 -1 -0 1 3 2 2 4 5 5 6 6 7 9 9 8
1 1 -1 -1 -1 -2 -2 -2 -2 -1 -2 -2 -2 -2 -2 -3 -3 -4 -4 -5 -6 -6 -6 -6 -6 -6 -5 -4 -3 -2 -1 -1 -0 -1 0 3 3 4 4 5 3 9 8 8
1 0 -0 -1 -2 -2 -2 -2 -2 -2 -2 -2 -2 -3 -3 -4 -5 -6 -7 -7 -8 -8 -8 -7 -6 -6 -6 -5 -4 -3 -3 -2 -2 -2 -1 1 1 1 2 1 2 4 8 8
0 0 0 -1 -2 -2 -2 -2 -2 -2 -3 -3 -4 -4 -5 -6 -7 -8 -8 -8 -9 -9 -8 -8 -7 -7 -7 -6 -5 -4 -5 -4 -4 -3 -3 -2 -1 -1 -1 0 1 -1 5 8
-0 -1 -1 -1 -1 -1 -1 -2 -2 -3 -3 -4 -5 -5 -6 -7 -8 -8 -8 -8 -8 -8 -8 -8 -8 -8 -8 -7 -7 -7 -6 -6 -6 -5 -4 -4 -4 -3 -2 -1 1 -1 -2 2
-0 -0 -2 -1 -0 -1 -1 -2 -3 -4 -4 -5 -5 -6 -7 -7 -8 -9 -8 -8 -9 -9 -9 -8 -9 -9 -8 -8 -8 -8 -7 -7 -7 -6 -6 -6 -6 -6 -5 -5 -2 -1 -3 -3
0 1 -0 -0 -1 -1 -2 -3 -4 -4 -5 -6 -6 -7 -7 -8 -9 -9 -9 -9 -9 -9 -9 -9 -9 -9 -9 -9 -8 -8 -8 -8 -8 -8 -8 -8 -7 -8 -9 -8 -7 -7 -7 -5
-0 -1 -1 -1 -2 -3 -3 -4 -5 -6 -7 -7 -8 -8 -8 -8 -8 -9 -9 -9 -9 -9 -9 -9 -9 -9 -10 -9 -9 -9 -9 -9 -9 -9 -9 -9 -9 -10 -10 -10 -10 -10 -10 -10
-1 -2 -3 -4 -4 -5 -5 -6 -7 -8 -9 -9 -9 -9 -9 -9 -9 -9 -9 -9 -9 -9 -9 -10 -10 -10 -10 -10 -10 -10 -10 -10 -10 -10 -10 -10 -10 -11 -11 -11 -11 -11 -11 -11
-3 -4 -5 -6 -6 -7 -7 -8 -8 -9 -10 -10 -10 -10 -10 -9 -9 -9 -9 -10 -10 -10 -10 -10 -10 -10 -10 -10 -10 -10 -10 -11 -11 -11 -11 -11 -11 -12 -11 -12 -12 -12 -12 -11
-5 -6 -6 -7 -7 -7 -8 -9 -9 -10 -11 -11 -10 -10 -10 -10 -10 -10 -10 -10 -10 -10 -10 -10 -10 -10 -10 -10 -10 -10 -11 -11 -11 -11 -11 -11 -12 -12 -11 -11 -11 -11 -11 -10
-6 -7 -7 -7 -8 -9 -9 -10 -10 -11 -11 -11 -11 -11 -11 -11 -10 -10 -10 -10 -9 -10 -10 -10 -10 -10 -10 -10 -10 -10 -10 -11 -11 -11 -12 -12 -11 -11 -11 -11 -11 -11 -11 -10
-7 -7 -8 -8 -9 -9 -11 -11 -12 -12 -12 -13 -12 -11 -11 -11 -10 -10 -10 -11 -11 -11 -10 -10 -10 -10 -10 -10 -10 -10 -10 -10 -11 -11 -11 -11 -11 -12 -12 -11 -11 -11 -11 -11
-8 -9 -9 -10 -10 -11 -12 -12 -12 -12 -13 -13 -13 -12 -12 -11 -11 -11 -11 -11 -11 -11 -11 -10 -10 -11 -10 -10 -10 -10 -10 -10 -11 -11 -11 -11 -11 -12 -12 -12 -12 -12 -11 -11
-10 -10 -11 -11 -11 -11 -12 -12 -12 -13 -13 -13 -13 -12 -12 -12 -12 -12 -12 -12 -11 -11 -11 -11 -11 -11 -11 -11 -10 -10 -10 -11 -11 -11 -11 -12 -12 -12 -12 -12 -12 -12 -12 -11
-10 -11 -11 -11 -12 -12 -12 -12 -12 -13 -13 -13 -13 -13 -12 -12 -13 -12 -12 -13 -12 -12 -12 -12 -12 -12 -12 -11 -11 -11 -11 -11 -12 -12 -12 -12 -12 -12 -11 -12 -12 -12 -12 -12
-10 -11 -11 -12 -12 -12 -12 -13 -13 -13 -13 -13 -13 -13 -13 -13 -13 -13 -14 -14 -14 -13 -13 -13 -13 -13 -13 -13 -13 -12 -12 -12 -12 -12 -12 -12 -12 -12 -12 -12 -12 -12 -12 -11
-11 -11 -11 -11 -12 -13 -13 -13 -13 -13 -13 -13 -13 -14 -14 -14 -14 -14 -14 -14 -14 -14 -14 -14 -14 -13 -13 -13 -13 -13 -14 -13 -14 -13 -13 -13 -13 -13 -13 -13 -13 -12 -13 -13
-11 -11 -12 -12 -13 -13 -14 -14 -14 -14 -14 -14 -14 -14 -14 -14 -14 -15 -15 -15 -15 -15 -15 -15 -15 -14 -14 -14 -14 -14 -14 -15 -15 -14 -14 -14 -14 -14 -13 -13 -12 -13 -13 -13
-11 -12 -12 -12 -13 -14 -14 -14 -14 -14 -14 -14 -14 -15 -15 -15 -15 -15 -15 -15 -15 -15 -15 -15 -15 -15 -15 -15 -15 -15 -15 -15 -15 -15 -15 -15 -14 -14 -13 -13 -13 -13 -13 -13

GFSNGP_850_temp_132.txt.gz
Temp
3 4 5 5 5 6 6 6 5 7 6 6 6 5 4 4 5 5 5 4 4 4 4 5 5 5 5 6 6 8 9 9 10 10 10 10 9 9 10 10 10 10 11 11
2 4 5 5 3 3 3 3 5 5 4 5 6 6 5 4 4 4 4 3 3 2 3 4 4 4 4 5 7 7 7 8 8 9 9 9 9 9 9 10 9 10 10 11
3 4 4 4 2 3 3 3 3 4 3 4 4 5 3 2 2 2 1 1 1 1 1 2 2 2 3 4 5 6 6 6 7 7 8 8 8 9 8 9 9 10 10 10
2 3 3 3 3 3 3 2 2 2 3 3 2 2 1 1 1 0 -0 -0 -0 -0 -1 -1 -0 1 2 4 4 4 4 4 5 5 6 7 7 8 8 8 9 9 10 10
1 3 5 4 2 1 1 2 1 1 1 1 1 3 1 -0 -0 -0 -1 -1 -1 -1 -1 0 1 1 2 2 2 2 3 3 3 3 5 5 5 6 7 7 9 9 9 10
2 2 2 1 2 1 2 2 -0 -0 0 0 1 2 1 -1 -1 -2 -1 -1 -2 -2 -1 -1 -1 -2 -1 0 0 2 2 2 1 2 3 4 4 6 6 6 7 8 9 10
-1 -0 1 0 -0 2 1 -1 -1 -1 -1 -1 -0 -1 -2 -2 -2 -3 -3 -3 -3 -3 -2 -2 -1 -2 -1 -1 -1 -0 1 1 1 -0 1 2 4 5 6 6 6 7 8 7
-2 -5 -1 -1 1 0 -1 -1 -2 -2 -2 -2 -2 -2 -2 -3 -3 -4 -4 -4 -5 -4 -5 -5 -4 -2 -2 -2 -2 -2 -1 -1 -2 -3 -0 1 3 5 5 4 4 5 5 7
0 1 -1 -1 -1 -2 -2 -2 -2 -2 -2 -3 -3 -4 -4 -5 -5 -6 -6 -6 -7 -6 -5 -6 -6 -6 -6 -5 -4 -3 -4 -4 -4 -3 -1 0 2 4 3 1 2 3 3 5
-1 -1 -1 -2 -2 -2 -2 -2 -2 -2 -3 -3 -4 -5 -5 -5 -6 -7 -7 -7 -7 -6 -6 -6 -6 -7 -8 -9 -8 -7 -7 -6 -4 -3 -2 -2 0 1 0 0 0 1 1 1
-1 -1 -1 -1 -2 -2 -2 -2 -3 -3 -4 -4 -4 -5 -6 -6 -7 -8 -8 -8 -8 -8 -9 -9 -9 -9 -8 -8 -7 -6 -6 -6 -5 -5 -4 -4 -3 -2 -2 -2 -1 -1 -0 1
-3 -1 -2 -1 -1 -1 -2 -2 -3 -4 -4 -5 -5 -6 -7 -7 -8 -9 -9 -9 -9 -9 -9 -8 -8 -8 -8 -8 -8 -8 -7 -7 -7 -6 -6 -5 -5 -5 -4 -3 -3 -2 -1 -1
0 -0 -1 -1 -2 -2 -2 -3 -4 -5 -6 -6 -7 -7 -7 -7 -8 -9 -9 -9 -9 -9 -9 -9 -9 -9 -9 -9 -9 -9 -8 -8 -8 -8 -7 -7 -7 -7 -7 -7 -6 -5 -3 -2
-0 -0 -1 -2 -3 -3 -3 -4 -5 -5 -6 -7 -8 -8 -8 -8 -9 -9 -9 -9 -9 -9 -9 -9 -9 -9 -9 -9 -9 -9 -9 -9 -9 -9 -9 -9 -8 -9 -9 -9 -9 -9 -8 -5
-1 -1 -2 -3 -3 -4 -4 -5 -5 -7 -8 -9 -9 -9 -10 -9 -9 -9 -9 -9 -10 -9 -8 -9 -9 -9 -10 -10 -10 -10 -9 -10 -10 -10 -10 -10 -10 -10 -10 -10 -10 -10 -10 -10
-2 -3 -3 -3 -5 -6 -6 -6 -7 -8 -9 -9 -10 -10 -10 -10 -10 -10 -10 -10 -10 -10 -9 -9 -9 -10 -10 -10 -10 -10 -10 -10 -10 -11 -11 -11 -10 -10 -10 -10 -11 -11 -11 -11
-3 -4 -5 -6 -6 -7 -7 -8 -8 -9 -10 -10 -11 -10 -11 -10 -10 -10 -10 -10 -10 -10 -10 -10 -10 -10 -10 -10 -10 -10 -10 -11 -11 -11 -11 -11 -11 -11 -11 -11 -11 -11 -11 -11
-5 -6 -6 -7 -7 -8 -8 -9 -9 -10 -10 -11 -11 -11 -11 -11 -11 -10 -11 -10 -10 -10 -10 -10 -10 -10 -10 -10 -10 -10 -11 -11 -11 -11 -11 -11 -11 -11 -11 -11 -11 -11 -12 -11
-6 -6 -7 -7 -8 -8 -9 -10 -11 -11 -11 -11 -11 -11 -12 -12 -11 -11 -10 -11 -10 -10 -10 -10 -10 -10 -10 -10 -10 -10 -10 -11 -11 -11 -11 -11 -11 -11 -11 -12 -12 -12 -11 -11
-6 -7 -8 -8 -9 -9 -10 -11 -12 -12 -13 -13 -13 -12 -12 -11 -11 -11 -11 -11 -11 -11 -11 -11 -11 -11 -10 -10 -10 -10 -10 -10 -11 -11 -11 -11 -11 -11 -11 -11 -11 -11 -11 -11
-7 -8 -9 -9 -10 -11 -11 -12 -13 -13 -13 -13 -13 -13 -13 -12 -12 -12 -12 -12 -11 -11 -11 -11 -11 -11 -11 -10 -10 -10 -10 -11 -11 -11 -11 -11 -11 -12 -12 -12 -12 -12 -12 -12
-9 -10 -10 -10 -11 -11 -12 -12 -12 -13 -13 -13 -13 -13 -13 -13 -13 -13 -13 -13 -12 -12 -12 -12 -12 -11 -11 -11 -11 -11 -11 -11 -11 -11 -12 -12 -12 -12 -12 -12 -12 -12 -12 -12
-10 -10 -10 -11 -12 -12 -12 -12 -13 -13 -13 -13 -13 -13 -13 -13 -13 -13 -13 -13 -13 -13 -13 -13 -12 -12 -12 -12 -12 -12 -12 -12 -12 -12 -12 -12 -12 -12 -12 -12 -12 -12 -12 -13
-10 -11 -11 -12 -12 -12 -13 -13 -13 -13 -13 -13 -13 -14 -14 -14 -14 -14 -15 -14 -14 -14 -14 -13 -13 -13 -13 -13 -12 -13 -13 -13 -12 -12 -12 -12 -12 -12 -12 -12 -12 -12 -12 -12
-11 -11 -11 -12 -12 -13 -13 -14 -14 -14 -14 -14 -14 -14 -14 -14 -15 -14 -15 -15 -15 -14 -14 -14 -14 -14 -14 -14 -13 -13 -13 -13 -13 -13 -13 -13 -13 -13 -13 -13 -13 -13 -13 -13
-11 -11 -12 -12 -13 -13 -14 -14 -14 -14 -14 -14 -14 -14 -14 -15 -15 -15 -15 -15 -15 -15 -15 -15 -15 -15 -15 -15 -15 -14 -14 -14 -14 -14 -14 -14 -14 -13 -13 -13 -13 -14 -13 -13
-11 -12 -12 -13 -13 -14 -14 -14 -14 -14 -15 -15 -15 -15 -15 -15 -15 -15 -15 -15 -15 -16 -16 -16 -16 -15 -15 -15 -15 -15 -15 -15 -15 -15 -15 -15 -14 -14 -14 -14 -14 -14 -14 -14

GFSNGP_850_temp_135.txt.gz
Temp
3 3 3 3 3 3 3 4 3 4 3 3 4 5 4 3 2 2 1 0 0 1 0 1 3 3 4 4 4 5 5 5 7 8 9 9 9 10 10 10 10 9 9 10
2 3 3 3 2 2 3 4 4 4 4 3 3 4 3 2 2 2 1 1 -0 -0 -1 0 0 1 1 2 3 3 2 3 5 7 8 8 9 9 10 10 10 9 8 9
3 3 3 3 1 2 3 1 2 2 2 2 2 3 1 1 1 0 0 -1 -2 -2 -2 -2 -1 -0 1 1 2 2 2 3 4 4 6 7 7 8 8 9 9 9 9 8
2 3 2 2 3 3 1 0 1 1 1 1 1 1 -0 -0 -0 -2 -2 -3 -3 -3 -3 -3 -3 -1 0 0 0 0 1 2 3 3 5 6 6 6 7 8 8 8 8 8
-0 2 3 3 2 1 1 1 -0 0 1 0 0 2 -1 -2 -3 -4 -4 -4 -4 -3 -3 -3 -3 -3 -2 -1 -1 -0 1 1 1 2 3 4 5 5 5 6 7 7 8 8
1 2 2 0 1 0 2 1 -1 -1 -1 -1 -1 0 -0 -3 -4 -4 -4 -4 -5 -5 -5 -4 -3 -3 -2 -2 -2 -1 -1 -1 -0 0 1 3 4 4 4 5 5 5 7 7
-2 -5 -2 -0 -1 1 1 -2 -2 -2 -2 -2 -1 -2 -3 -4 -4 -5 -6 -6 -6 -6 -6 -6 -5 -4 -4 -4 -4 -4 -3 -2 -2 -1 -0 1 2 3 4 4 5 4 6 6
-3 -6 -2 -1 1 -0 -1 -2 -2 -2 -2 -3 -3 -3 -4 -5 -6 -7 -6 -6 -6 -6 -6 -6 -6 -5 -5 -5 -5 -4 -3 -3 -2 -2 -1 -0 0 2 3 3 3 2 4 5
-2 -2 -2 -2 -2 -2 -2 -2 -2 -2 -3 -4 -4 -5 -5 -6 -7 -7 -8 -7 -7 -7 -6 -6 -6 -6 -6 -5 -5 -4 -4 -4 -4 -3 -3 -3 -2 -1 1 1 1 1 2 2
-2 -1 -1 -2 -2 -2 -2 -2 -3 -3 -3 -4 -5 -5 -6 -6 -7 -7 -6 -7 -7 -7 -6 -7 -7 -8 -8 -7 -6 -5 -5 -5 -5 -5 -4 -4 -4 -3 -2 -2 -1 0 0 0
-3 -1 -1 -2 -2 -2 -2 -2 -3 -3 -4 -5 -5 -6 -7 -7 -7 -8 -8 -7 -7 -8 -8 -8 -8 -7 -8 -8 -8 -7 -7 -7 -7 -7 -7 -7 -7 -6 -5 -4 -3 -2 -1 -1
-3 -1 -2 -2 -2 -1 -2 -3 -4 -4 -5 -5 -6 -6 -7 -7 -8 -8 -9 -8 -8 -8 -8 -8 -8 -7 -7 -8 -8 -9 -8 -8 -9 -9 -9 -9 -8 -7 -7 -6 -3 -2 -2 -3
0 -0 -1 -2 -2 -2 -3 -4 -4 -5 -6 -7 -7 -8 -8 -8 -9 -9 -8 -8 -8 -8 -9 -8 -8 -8 -8 -9 -9 -10 -10 -10 -10 -10 -10 -9 -9 -9 -8 -7 -7 -5 -4 -4
-0 -1 -2 -2 -3 -4 -4 -5 -5 -6 -6 -7 -8 -8 -9 -9 -9 -9 -9 -9 -9 -9 -9 -9 -8 -9 -9 -9 -10 -10 -10 -10 -11 -11 -10 -10 -10 -10 -9 -8 -9 -9 -9 -8
-1 -1 -2 -3 -4 -4 -5 -5 -5 -6 -7 -7 -8 -9 -9 -10 -10 -10 -10 -10 -10 -10 -9 -9 -9 -9 -9 -10 -10 -10 -11 -11 -11 -11 -11 -10 -10 -10 -10 -10 -10 -10 -10 -10
-3 -3 -3 -4 -5 -5 -6 -6 -7 -8 -9 -10 -10 -10 -10 -11 -11 -11 -10 -10 -10 -10 -10 -10 -9 -9 -10 -10 -10 -10 -11 -11 -11 -11 -11 -11 -11 -11 -10 -10 -10 -10 -10 -11
-3 -4 -5 -5 -5 -6 -7 -8 -9 -9 -10 -11 -11 -12 -11 -11 -11 -11 -10 -11 -11 -11 -11 -10 -10 -10 -10 -10 -10 -10 -10 -11 -11 -11 -11 -11 -11 -11 -11 -11 -11 -11 -11 -12
-4 -4 -5 -6 -7 -7 -8 -9 -10 -11 -12 -12 -12 -12 -12 -12 -12 -11 -11 -11 -11 -11 -11 -10 -10 -10 -10 -10 -10 -10 -10 -11 -11 -11 -11 -11 -11 -11 -11 -11 -12 -12 -12 -12
-5 -5 -6 -7 -7 -8 -9 -10 -11 -12 -12 -12 -12 -12 -12 -12 -12 -12 -12 -12 -11 -11 -10 -11 -11 -10 -10 -10 -10 -10 -10 -11 -11 -11 -12 -11 -11 -11 -12 -12 -12 -12 -12 -12
-6 -6 -7 -7 -8 -9 -10 -11 -11 -12 -13 -13 -13 -13 -12 -12 -12 -12 -12 -12 -12 -12 -12 -12 -11 -11 -11 -10 -10 -10 -11 -11 -11 -11 -11 -12 -12 -12 -12 -12 -12 -12 -12 -12
-7 -7 -8 -9 -10 -10 -11 -12 -12 -12 -12 -13 -13 -13 -13 -13 -13 -13 -12 -12 -12 -12 -12 -12 -12 -11 -11 -11 -11 -11 -11 -11 -12 -12 -12 -12 -12 -12 -12 -12 -12 -12 -12 -12
-8 -9 -9 -10 -11 -11 -12 -12 -12 -12 -13 -13 -13 -13 -14 -14 -14 -14 -14 -14 -14 -14 -13 -13 -12 -12 -12 -12 -12 -12 -12 -12 -12 -12 -12 -12 -12 -12 -12 -13 -12 -12 -12 -12
-9 -10 -10 -11 -11 -12 -12 -12 -13 -13 -13 -13 -13 -14 -14 -14 -14 -14 -14 -14 -14 -14 -14 -13 -13 -13 -13 -13 -12 -13 -13 -13 -13 -13 -13 -13 -13 -13 -13 -12 -13 -13 -13 -13
-10 -10 -11 -11 -12 -12 -12 -13 -14 -14 -14 -14 -14 -14 -14 -14 -14 -15 -15 -15 -15 -15 -14 -14 -14 -14 -14 -13 -13 -13 -13 -13 -13 -13 -13 -13 -13 -13 -13 -13 -13 -13 -13 -13
-10 -10 -11 -11 -12 -13 -13 -14 -14 -14 -14 -14 -14 -14 -14 -15 -15 -15 -15 -15 -15 -15 -15 -15 -15 -15 -14 -14 -14 -14 -14 -14 -14 -14 -14 -14 -14 -14 -13 -13 -13 -13 -13 -13
-11 -11 -12 -12 -13 -13 -14 -14 -14 -14 -15 -15 -15 -15 -15 -15 -15 -15 -15 -15 -15 -16 -16 -16 -15 -15 -15 -15 -15 -15 -15 -15 -15 -15 -15 -15 -15 -14 -14 -14 -14 -14 -14 -14
-11 -12 -12 -13 -13 -14 -14 -14 -14 -15 -15 -15 -15 -15 -15 -16 -16 -16 -16 -16 -16 -16 -16 -16 -16 -16 -16 -16 -16 -16 -16 -16 -16 -16 -16 -16 -15 -15 -15 -15 -14 -14 -15 -15

GFSNGP_850_temp_138.txt.gz
Temp
2 2 2 2 2 1 2 3 3 3 3 2 2 2 2 1 1 -0 -1 -2 -2 -2 -2 -3 -4 -1 1 1 1 3 4 5 5 6 6 6 6 7 7 8 9 10 10 10
1 2 2 2 1 1 2 2 2 3 3 3 2 3 1 1 1 -1 -2 -2 -3 -3 -4 -4 -4 -3 -3 -3 -1 0 1 2 4 5 6 6 5 5 7 8 8 9 9 9
2 3 3 2 1 1 2 0 0 1 1 2 2 1 -1 -1 -2 -2 -3 -4 -5 -4 -4 -4 -4 -2 -1 -2 -2 -1 -0 2 3 4 5 4 5 5 6 7 7 8 8 8
1 2 1 1 2 2 1 0 0 1 1 1 0 -1 -2 -3 -4 -4 -5 -6 -5 -5 -5 -5 -5 -3 -2 -2 -2 -1 0 0 1 1 2 2 2 3 5 6 6 7 7 8
-1 1 2 1 2 0 0 0 -1 -0 0 -0 -1 -1 -3 -4 -4 -6 -6 -6 -7 -7 -6 -6 -5 -5 -4 -4 -4 -4 -4 -3 -2 -1 -1 1 2 4 4 5 5 5 6 6
-0 1 1 1 -0 -0 0 0 -1 -1 -1 -2 -2 -1 -2 -4 -5 -6 -6 -7 -7 -7 -7 -6 -6 -5 -5 -5 -5 -5 -4 -3 -3 -2 -1 -1 1 2 3 3 3 5 6 5
-0 -6 -3 -1 -1 0 1 -1 -2 -2 -2 -3 -2 -3 -4 -5 -6 -6 -7 -7 -6 -6 -7 -7 -7 -6 -5 -5 -5 -5 -4 -4 -4 -3 -3 -2 -1 -0 0 1 2 3 4 5
-4 -7 -3 -1 -0 -0 -2 -2 -2 -2 -3 -3 -4 -4 -5 -6 -6 -7 -7 -6 -6 -6 -7 -7 -7 -7 -7 -7 -6 -5 -4 -4 -5 -5 -5 -5 -5 -4 -2 -2 0 2 3 4
-3 -3 -2 -1 -2 -2 -2 -2 -2 -3 -3 -4 -4 -5 -6 -6 -7 -7 -7 -7 -7 -7 -6 -7 -7 -7 -7 -7 -7 -6 -6 -6 -6 -6 -6 -6 -6 -6 -5 -3 -2 -0 1 2
-2 -2 -1 -3 -2 -2 -2 -2 -3 -3 -4 -4 -5 -6 -7 -7 -8 -8 -8 -9 -8 -8 -8 -8 -8 -8 -8 -7 -7 -6 -6 -6 -6 -7 -7 -6 -6 -6 -6 -5 -3 -2 -1 -0
-3 -1 -1 -2 -2 -2 -2 -2 -3 -4 -5 -5 -6 -7 -8 -7 -8 -8 -8 -8 -8 -9 -9 -9 -9 -9 -8 -8 -8 -8 -8 -8 -8 -8 -8 -7 -7 -8 -8 -7 -7 -7 -5 -3
-3 -1 -2 -2 -2 -2 -2 -3 -4 -5 -5 -6 -7 -7 -8 -9 -9 -10 -10 -10 -10 -10 -10 -9 -8 -8 -9 -9 -10 -10 -9 -9 -10 -10 -9 -9 -9 -7 -8 -8 -7 -7 -6 -5
0 -1 -1 -2 -2 -3 -3 -4 -5 -6 -6 -7 -7 -8 -8 -9 -10 -10 -9 -9 -9 -9 -9 -9 -8 -8 -8 -8 -8 -9 -9 -10 -9 -9 -9 -10 -10 -10 -9 -8 -9 -8 -7 -6
-0 -0 -2 -3 -3 -4 -4 -5 -6 -6 -7 -8 -8 -8 -9 -9 -10 -10 -10 -10 -10 -9 -9 -9 -8 -8 -8 -8 -9 -9 -9 -9 -9 -10 -10 -11 -10 -10 -10 -10 -10 -9 -9 -9
-0 -1 -1 -3 -4 -4 -5 -5 -6 -7 -8 -8 -9 -10 -10 -10 -11 -11 -11 -10 -10 -10 -9 -9 -9 -9 -9 -9 -9 -9 -9 -10 -10 -11 -11 -11 -11 -11 -11 -11 -10 -10 -10 -9
-2 -3 -3 -4 -4 -5 -5 -6 -7 -8 -9 -9 -10 -10 -11 -11 -11 -11 -11 -11 -11 -11 -10 -10 -10 -10 -9 -9 -9 -9 -10 -10 -11 -11 -11 -11 -11 -11 -11 -11 -11 -11 -11 -11
-3 -4 -5 -5 -6 -6 -7 -8 -9 -10 -10 -11 -11 -12 -12 -12 -11 -11 -11 -11 -11 -11 -11 -11 -10 -10 -10 -10 -10 -10 -10 -10 -11 -11 -11 -12 -12 -12 -12 -12 -12 -12 -13 -13
-3 -4 -5 -6 -6 -7 -8 -9 -10 -11 -11 -12 -13 -12 -12 -12 -12 -12 -12 -12 -11 -11 -11 -11 -11 -11 -11 -11 -10 -10 -11 -11 -11 -11 -11 -12 -12 -12 -12 -12 -13 -13 -13 -13
-5 -5 -6 -6 -7 -8 -9 -10 -11 -12 -12 -13 -13 -13 -13 -13 -13 -13 -13 -12 -12 -11 -11 -12 -12 -11 -11 -11 -11 -11 -11 -11 -11 -11 -12 -12 -12 -12 -12 -13 -13 -13 -13 -13
-5 -6 -6 -7 -8 -9 -10 -11 -12 -12 -13 -13 -13 -13 -13 -13 -13 -13 -13 -13 -13 -14 -13 -13 -12 -12 -12 -12 -12 -12 -12 -12 -12 -12 -12 -12 -12 -12 -12 -13 -13 -13 -13 -13
-6 -7 -8 -9 -10 -10 -11 -12 -12 -12 -13 -13 -13 -13 -14 -14 -14 -14 -14 -14 -14 -14 -13 -13 -13 -13 -13 -13 -12 -12 -12 -12 -12 -12 -12 -13 -13 -13 -13 -13 -13 -13 -13 -13
-8 -8 -9 -10 -11 -11 -12 -12 -13 -13 -13 -13 -13 -13 -14 -14 -14 -14 -15 -15 -14 -14 -14 -14 -13 -13 -13 -13 -13 -13 -13 -13 -13 -13 -13 -13 -13 -13 -13 -13 -13 -13 -13 -13
-9 -9 -10 -11 -11 -12 -12 -13 -13 -14 -14 -14 -14 -14 -14 -15 -15 -15 -15 -15 -15 -15 -15 -14 -14 -14 -14 -14 -14 -14 -14 -14 -14 -14 -14 -14 -14 -13 -14 -14 -14 -13 -13 -13
-9 -10 -10 -11 -12 -12 -12 -13 -14 -14 -14 -14 -14 -14 -14 -15 -15 -15 -15 -15 -15 -15 -15 -15 -15 -15 -15 -14 -14 -15 -15 -15 -15 -14 -14 -14 -14 -14 -14 -14 -14 -14 -14 -14
-10 -11 -11 -11 -12 -13 -13 -14 -14 -14 -14 -15 -15 -15 -15 -15 -16 -16 -16 -16 -15 -16 -16 -15 -15 -15 -15 -15 -15 -15 -15 -15 -15 -15 -15 -15 -15 -15 -14 -14 -14 -14 -14 -14
-11 -11 -12 -12 -12 -13 -13 -14 -14 -14 -15 -15 -15 -15 -16 -16 -16 -16 -16 -16 -16 -16 -16 -16 -16 -16 -16 -16 -16 -16 -16 -16 -16 -16 -16 -15 -15 -15 -15 -15 -15 -14 -14 -14
-11 -12 -12 -12 -13 -13 -14 -14 -14 -14 -15 -15 -16 -16 -16 -16 -16 -16 -16 -16 -16 -16 -16 -16 -17 -17 -17 -17 -17 -16 -17 -16 -16 -16 -16 -16 -16 -16 -15 -15 -15 -15 -15 -15

GFSNGP_850_temp_141.txt.gz
Temp
3 4 4 3 3 3 3 4 3 5 4 2 3 3 1 0 -0 -1 -2 -3 -4 -5 -5 -6 -4 -5 -1 -0 -2 -1 -0 2 4 5 6 6 6 7 8 8 8 8 8 9
2 4 3 3 3 3 3 4 3 3 4 1 2 2 -0 -1 -1 -2 -3 -4 -5 -6 -6 -7 -7 -6 -5 -3 -4 -4 -2 -0 1 3 4 5 5 6 6 7 7 7 7 8
3 4 4 3 3 3 2 1 1 2 2 2 2 1 -2 -2 -3 -4 -5 -5 -6 -7 -7 -8 -7 -8 -7 -5 -4 -3 -3 -1 1 3 3 4 4 5 5 6 6 6 6 7
3 3 2 3 3 2 2 1 1 1 1 1 0 -0 -3 -4 -4 -5 -6 -7 -7 -7 -8 -7 -7 -6 -5 -5 -5 -5 -5 -4 -2 0 1 1 3 4 4 4 4 5 5 6
2 2 3 2 2 1 1 1 -0 0 1 -0 -1 -1 -3 -4 -5 -6 -7 -8 -8 -7 -7 -6 -6 -6 -5 -6 -5 -5 -5 -4 -2 -2 -2 -2 -0 1 2 3 3 4 4 6
2 1 2 2 1 0 0 1 -1 -1 -1 -1 -1 -0 -1 -5 -6 -7 -7 -8 -7 -7 -8 -6 -6 -6 -6 -6 -6 -6 -6 -6 -5 -5 -4 -3 -2 -2 -1 -0 1 2 3 4
1 -0 1 1 -0 -0 1 0 -1 -2 -2 -3 -2 -3 -4 -5 -6 -7 -7 -7 -7 -7 -7 -7 -6 -6 -6 -7 -8 -7 -7 -7 -6 -5 -4 -4 -4 -3 -2 -1 -0 1 2 3
-1 -2 1 -1 0 2 -1 -2 -2 -2 -3 -4 -4 -4 -5 -6 -7 -8 -7 -7 -7 -7 -7 -7 -7 -6 -6 -6 -7 -7 -7 -7 -6 -6 -6 -6 -6 -5 -4 -3 -2 -1 -0 1
1 2 -2 -1 -2 -2 -3 -3 -3 -3 -4 -5 -5 -6 -6 -7 -7 -8 -7 -7 -7 -8 -7 -8 -8 -8 -7 -7 -7 -7 -7 -7 -7 -7 -6 -6 -6 -7 -7 -6 -5 -5 -4 -1
-0 -0 -1 -2 -2 -2 -2 -3 -3 -4 -4 -5 -6 -7 -8 -8 -9 -9 -10 -10 -9 -9 -10 -9 -8 -8 -8 -8 -8 -8 -8 -7 -7 -7 -7 -7 -7 -8 -8 -8 -8 -9 -8 -6
-0 -1 -1 -2 -2 -2 -2 -3 -3 -4 -5 -6 -6 -8 -9 -9 -10 -10 -10 -8 -9 -9 -9 -8 -8 -8 -8 -8 -7 -7 -7 -7 -7 -7 -7 -7 -7 -9 -9 -9 -9 -10 -9 -9
1 -1 -0 -2 -2 -2 -3 -3 -4 -5 -5 -6 -7 -8 -8 -9 -10 -11 -10 -9 -9 -9 -9 -9 -9 -8 -8 -8 -8 -8 -8 -8 -9 -9 -9 -9 -9 -7 -9 -9 -9 -9 -9 -9
0 -0 -1 -2 -3 -3 -3 -4 -5 -6 -7 -7 -8 -9 -9 -10 -11 -11 -11 -10 -11 -11 -11 -11 -10 -10 -9 -10 -10 -10 -10 -10 -10 -10 -10 -10 -10 -10 -9 -8 -9 -10 -9 -9
-0 -1 -3 -3 -3 -4 -4 -5 -6 -7 -8 -8 -9 -10 -11 -11 -10 -11 -11 -11 -11 -11 -11 -11 -11 -11 -11 -10 -10 -10 -10 -10 -10 -10 -10 -10 -11 -11 -11 -11 -10 -10 -10 -10
-1 -1 -1 -3 -4 -5 -5 -6 -7 -8 -9 -10 -10 -10 -11 -11 -11 -11 -11 -11 -11 -11 -11 -11 -11 -10 -11 -10 -10 -10 -10 -10 -10 -10 -10 -10 -10 -10 -11 -11 -12 -12 -11 -10
-2 -3 -3 -4 -5 -6 -7 -7 -8 -9 -10 -10 -11 -11 -11 -12 -12 -12 -12 -12 -12 -12 -12 -11 -11 -11 -11 -11 -10 -10 -10 -10 -10 -10 -10 -10 -11 -11 -11 -12 -12 -13 -12 -12
-3 -5 -5 -5 -6 -7 -7 -8 -9 -10 -10 -11 -12 -12 -12 -12 -12 -12 -12 -12 -12 -12 -12 -12 -12 -12 -11 -11 -11 -10 -10 -10 -11 -11 -11 -11 -11 -12 -12 -12 -12 -14 -14 -14
-4 -4 -5 -6 -6 -7 -8 -9 -10 -10 -11 -12 -12 -12 -12 -13 -13 -13 -13 -13 -12 -12 -12 -12 -12 -12 -12 -11 -11 -11 -11 -11 -11 -12 -12 -12 -12 -12 -12 -13 -13 -14 -14 -14
-5 -5 -6 -7 -7 -8 -9 -10 -11 -12 -12 -12 -12 -13 -13 -13 -13 -14 -13 -13 -12 -12 -13 -13 -13 -12 -12 -12 -12 -12 -11 -12 -12 -12 -12 -12 -12 -13 -13 -13 -13 -13 -13 -13
-6 -6 -7 -7 -8 -9 -10 -11 -11 -12 -12 -12 -13 -13 -13 -13 -14 -13 -13 -14 -14 -14 -14 -14 -13 -13 -13 -13 -13 -12 -12 -12 -12 -12 -13 -13 -13 -13 -13 -13 -13 -13 -13 -13
-7 -7 -8 -9 -9 -10 -11 -11 -12 -12 -13 -13 -13 -13 -14 -14 -14 -14 -13 -13 -14 -14 -14 -14 -14 -14 -14 -14 -13 -13 -13 -13 -13 -13 -13 -13 -13 -13 -13 -13 -13 -13 -13 -13
-7 -8 -9 -10 -11 -11 -12 -12 -12 -13 -13 -14 -14 -14 -14 -14 -14 -14 -15 -15 -15 -15 -15 -15 -14 -14 -14 -14 -14 -14 -14 -14 -14 -14 -14 -14 -14 -14 -14 -14 -14 -14 -14 -14
-8 -9 -10 -11 -11 -12 -12 -13 -13 -13 -13 -14 -14 -14 -14 -15 -15 -15 -15 -15 -15 -15 -15 -15 -15 -15 -15 -15 -15 -15 -15 -15 -14 -14 -14 -14 -14 -14 -14 -14 -14 -14 -14 -14
-9 -10 -10 -11 -12 -12 -13 -13 -13 -14 -14 -14 -15 -15 -15 -15 -15 -15 -15 -15 -15 -15 -16 -16 -16 -15 -15 -15 -15 -15 -15 -15 -15 -15 -14 -14 -14 -14 -14 -14 -14 -14 -14 -14
-10 -11 -11 -12 -12 -13 -13 -14 -14 -14 -15 -15 -15 -15 -15 -16 -16 -16 -16 -16 -16 -16 -16 -16 -16 -16 -16 -16 -16 -16 -16 -16 -16 -16 -15 -15 -15 -15 -15 -15 -15 -15 -14 -14
-11 -11 -12 -12 -13 -13 -14 -14 -14 -14 -15 -15 -15 -16 -16 -16 -16 -16 -16 -16 -16 -16 -16 -16 -16 -16 -16 -17 -17 -17 -17 -17 -16 -16 -16 -16 -16 -15 -15 -15 -15 -15 -15 -15
-11 -12 -12 -12 -13 -13 -14 -14 -14 -15 -15 -15 -16 -16 -16 -16 -16 -16 -16 -17 -17 -17 -17 -17 -17 -17 -17 -17 -17 -17 -17 -17 -17 -17 -17 -16 -16 -16 -16 -16 -16 -16 -16 -16

GFSNGP_850_temp_144.txt.gz
Temp
7 7 7 7 7 7 7 7 6 8 8 7 4 3 2 1 1 1 0 -1 -2 -3 -4 -5 -5 -3 -3 -2 -2 -2 -4 -5 -4 -1 4 4 4 6 7 8 8 8 9 9
5 6 6 6 7 7 7 7 7 7 7 5 5 4 1 1 -0 -1 -1 -2 -3 -3 -4 -5 -6 -6 -4 -4 -3 -3 -4 -3 -1 0 1 1 4 5 5 6 7 7 7 8
6 7 7 6 6 6 6 4 3 4 5 5 4 3 0 -1 -1 -2 -3 -3 -4 -4 -5 -6 -7 -8 -6 -5 -4 -4 -4 -4 -5 -3 0 2 3 3 4 5 5 5 6 7
6 6 5 5 6 5 4 5 4 3 4 3 3 2 -1 -2 -2 -3 -3 -4 -5 -5 -5 -6 -7 -8 -8 -8 -8 -8 -6 -6 -5 -3 -1 1 1 1 2 4 4 5 5 6
5 6 7 4 5 4 4 4 3 3 4 3 2 2 -2 -2 -3 -4 -4 -5 -5 -6 -6 -6 -7 -8 -8 -8 -8 -8 -9 -9 -8 -8 -5 -2 -0 -0 0 0 1 4 4 5
5 5 5 6 4 3 3 4 2 2 2 1 0 2 2 -3 -3 -4 -5 -5 -6 -6 -6 -7 -7 -8 -8 -8 -8 -9 -9 -9 -8 -8 -7 -6 -3 -2 -3 -0 1 2 3 3
5 4 5 5 3 3 3 2 1 -0 -0 -1 -1 -2 -3 -4 -4 -4 -5 -6 -6 -6 -7 -7 -8 -8 -8 -8 -9 -9 -9 -9 -8 -8 -8 -9 -8 -7 -6 -5 -5 -3 -1 0
4 3 4 3 3 3 2 1 -1 -1 -2 -3 -3 -3 -3 -3 -4 -5 -5 -6 -7 -7 -7 -7 -8 -8 -8 -8 -9 -10 -9 -8 -7 -8 -9 -9 -9 -8 -8 -8 -8 -7 -6 -3
4 5 2 2 1 -1 -1 -1 -1 -1 -2 -3 -3 -3 -4 -4 -5 -6 -6 -7 -7 -8 -7 -8 -8 -9 -9 -9 -10 -10 -10 -9 -8 -8 -8 -9 -9 -9 -9 -9 -9 -9 -8 -8
2 2 3 0 -1 -1 -1 -2 -2 -3 -3 -4 -4 -4 -5 -5 -5 -6 -7 -7 -8 -8 -8 -8 -9 -9 -9 -10 -10 -10 -10 -9 -10 -9 -8 -9 -10 -10 -10 -9 -9 -10 -9 -9
2 2 1 -0 -0 -1 -2 -2 -3 -4 -4 -5 -6 -5 -6 -6 -6 -7 -8 -8 -9 -9 -9 -9 -10 -10 -10 -11 -11 -11 -11 -10 -10 -11 -11 -10 -10 -10 -11 -11 -10 -11 -11 -10
4 1 1 0 -2 -2 -2 -3 -4 -4 -5 -6 -7 -7 -7 -7 -8 -9 -10 -10 -10 -10 -10 -11 -11 -10 -11 -11 -10 -10 -11 -10 -11 -11 -11 -11 -11 -10 -10 -10 -9 -10 -10 -10
3 1 0 -2 -2 -3 -3 -4 -5 -6 -6 -7 -8 -8 -9 -9 -11 -12 -12 -12 -11 -12 -11 -11 -11 -11 -10 -10 -10 -9 -9 -10 -10 -11 -11 -11 -11 -11 -11 -10 -11 -11 -12 -10
1 -0 -1 -2 -2 -4 -5 -6 -6 -7 -8 -8 -9 -9 -10 -11 -12 -11 -11 -11 -11 -11 -11 -11 -11 -10 -10 -10 -9 -9 -9 -10 -10 -11 -11 -11 -12 -12 -12 -12 -12 -12 -12 -12
-0 -1 -1 -3 -5 -5 -6 -6 -6 -7 -8 -9 -10 -11 -12 -12 -12 -12 -12 -11 -11 -11 -12 -12 -12 -12 -11 -11 -10 -11 -11 -12 -11 -12 -12 -12 -12 -12 -12 -12 -12 -13 -13 -13
-2 -3 -3 -4 -5 -6 -6 -7 -7 -8 -9 -10 -11 -12 -12 -12 -13 -12 -12 -12 -12 -12 -12 -12 -12 -12 -11 -11 -11 -12 -12 -12 -12 -12 -12 -12 -13 -13 -13 -13 -13 -13 -14 -14
-2 -3 -4 -4 -5 -7 -8 -8 -9 -10 -11 -11 -12 -11 -11 -11 -13 -12 -12 -12 -13 -13 -14 -13 -13 -12 -13 -12 -12 -13 -13 -12 -13 -12 -13 -13 -13 -13 -14 -14 -14 -14 -14 -14
-4 -4 -4 -5 -6 -7 -9 -10 -10 -11 -11 -11 -11 -12 -12 -12 -13 -13 -13 -13 -14 -14 -14 -13 -13 -13 -13 -13 -12 -13 -13 -13 -13 -13 -13 -14 -14 -14 -14 -14 -14 -14 -15 -15
-6 -6 -6 -7 -8 -9 -9 -10 -11 -11 -11 -12 -12 -12 -13 -13 -13 -13 -13 -14 -14 -14 -15 -15 -13 -14 -14 -14 -13 -13 -14 -14 -13 -13 -14 -14 -14 -14 -14 -14 -14 -15 -15 -15
-6 -6 -7 -7 -8 -10 -10 -10 -11 -12 -12 -12 -13 -13 -13 -13 -13 -13 -14 -14 -15 -15 -16 -15 -15 -15 -15 -15 -14 -14 -14 -14 -14 -14 -14 -14 -14 -14 -14 -15 -15 -15 -15 -15
-7 -7 -8 -8 -9 -10 -10 -11 -12 -12 -13 -13 -13 -13 -14 -14 -14 -14 -15 -14 -15 -15 -16 -16 -16 -15 -15 -15 -15 -15 -15 -15 -15 -15 -15 -15 -15 -15 -15 -15 -15 -15 -15 -14
-7 -8 -9 -9 -10 -11 -11 -12 -12 -13 -13 -13 -14 -14 -14 -15 -15 -14 -15 -16 -16 -15 -16 -16 -16 -15 -15 -15 -16 -16 -16 -16 -16 -16 -15 -15 -15 -15 -15 -15 -15 -15 -14 -14
-8 -9 -9 -10 -11 -12 -12 -12 -13 -13 -13 -14 -14 -14 -15 -15 -15 -15 -15 -16 -17 -16 -17 -16 -15 -15 -15 -16 -17 -17 -17 -17 -17 -17 -17 -17 -16 -15 -15 -15 -15 -15 -14 -14
-9 -10 -10 -11 -12 -12 -13 -13 -13 -13 -14 -14 -14 -14 -15 -15 -15 -16 -16 -17 -16 -16 -17 -16 -16 -16 -16 -17 -17 -17 -17 -17 -17 -17 -17 -17 -17 -17 -16 -15 -15 -15 -15 -15
-10 -10 -11 -12 -13 -13 -13 -13 -14 -14 -15 -15 -15 -16 -16 -16 -16 -17 -16 -17 -17 -16 -17 -17 -16 -16 -17 -18 -18 -18 -18 -18 -17 -18 -17 -17 -17 -17 -17 -16 -16 -15 -15 -15
-11 -11 -12 -12 -13 -13 -14 -14 -14 -14 -14 -14 -15 -16 -16 -17 -17 -17 -17 -17 -18 -17 -18 -18 -17 -17 -18 -18 -18 -18 -18 -17 -18 -18 -17 -17 -17 -17 -16 -16 -16 -16 -16 -16
-11 -12 -12 -13 -14 -14 -14 -14 -14 -14 -15 -15 -15 -16 -17 -17 -17 -17 -17 -18 -18 -18 -18 -18 -18 -18 -18 -18 -18 -18 -18 -18 -18 -17 -17 -17 -17 -17 -17 -17 -17 -17 -17 -17

GFSNGP_850_temp_147.txt.gz
Temp
11 11 10 11 10 10 10 10 9 10 10 10 8 7 4 4 4 3 3 2 1 0 -1 -1 -3 -4 -5 -6 -6 -6 -5 -5 -5 -5 -3 -1 1 2 3 2 1 2 2 4
8 10 10 9 10 10 10 10 10 10 10 8 7 6 5 4 2 2 2 1 0 -1 -2 -2 -3 -4 -5 -6 -6 -6 -6 -6 -6 -6 -5 -5 -4 -3 -1 -2 -1 1 -0 2
8 9 9 8 10 10 10 9 7 7 8 7 6 5 4 2 1 1 1 -0 -1 -1 -2 -3 -3 -4 -5 -6 -6 -6 -7 -7 -6 -6 -6 -6 -5 -5 -4 -4 -2 3 1 3
8 8 6 9 10 10 8 8 9 7 6 5 5 4 3 1 1 0 -0 -1 -1 -2 -3 -3 -4 -4 -5 -5 -6 -7 -7 -7 -7 -7 -6 -6 -5 -5 -5 -3 2 3 -1 1
7 8 9 8 8 8 8 8 7 6 6 5 5 4 1 1 0 -1 -1 -2 -2 -3 -3 -3 -4 -5 -5 -5 -6 -7 -7 -7 -7 -7 -7 -7 -6 -6 -5 -5 -4 -3 -2 1
7 7 7 8 7 6 7 5 5 5 4 3 3 5 4 -0 -1 -1 -1 -2 -3 -3 -3 -4 -4 -5 -5 -5 -6 -7 -8 -8 -7 -7 -7 -7 -7 -6 -6 -5 -5 -5 -5 -4
7 7 8 8 7 6 5 4 3 2 3 1 1 1 -0 -1 -2 -2 -2 -3 -3 -4 -4 -4 -5 -5 -5 -5 -7 -8 -8 -8 -8 -8 -7 -7 -7 -7 -7 -7 -7 -6 -6 -6
6 5 5 7 6 5 4 2 2 1 1 -1 -1 0 -0 -1 -1 -2 -2 -3 -3 -4 -4 -5 -5 -6 -6 -6 -8 -8 -8 -8 -8 -8 -8 -8 -8 -8 -8 -8 -8 -7 -5 -4
7 6 6 6 5 2 2 2 0 0 -0 0 0 -1 -1 -1 -1 -2 -3 -3 -4 -5 -5 -5 -6 -6 -7 -7 -8 -9 -9 -9 -9 -9 -9 -9 -9 -9 -9 -9 -9 -9 -9 -9
5 5 6 3 2 2 1 0 -0 0 0 -0 -1 -2 -2 -2 -2 -2 -3 -5 -5 -6 -6 -6 -7 -7 -8 -9 -9 -10 -10 -10 -9 -9 -9 -9 -9 -9 -9 -10 -10 -10 -10 -10
4 5 4 3 2 1 -0 -1 -0 -1 -1 -2 -3 -3 -3 -3 -4 -5 -6 -6 -7 -7 -8 -8 -8 -8 -9 -10 -10 -10 -10 -10 -10 -10 -10 -10 -10 -9 -9 -10 -11 -11 -11 -11
6 3 3 3 0 -1 -1 -1 -1 -1 -2 -3 -3 -4 -5 -5 -6 -8 -9 -9 -9 -10 -10 -10 -10 -10 -10 -11 -11 -11 -11 -10 -10 -10 -10 -10 -10 -10 -10 -10 -11 -11 -11 -12
5 3 3 1 0 0 -0 -1 -3 -3 -4 -4 -4 -5 -6 -7 -9 -11 -11 -11 -12 -12 -12 -12 -12 -12 -12 -11 -11 -11 -11 -11 -11 -11 -10 -10 -11 -10 -10 -10 -11 -11 -11 -12
4 2 2 1 1 -1 -2 -3 -4 -4 -5 -6 -6 -7 -8 -9 -11 -11 -12 -11 -11 -11 -12 -11 -11 -11 -12 -11 -11 -11 -11 -11 -11 -11 -11 -11 -11 -11 -11 -11 -11 -11 -11 -12
2 2 2 0 -1 -2 -2 -3 -4 -4 -5 -6 -7 -9 -10 -10 -11 -12 -12 -11 -11 -13 -11 -12 -12 -13 -12 -12 -12 -11 -11 -11 -11 -11 -11 -11 -11 -11 -11 -12 -12 -12 -12 -12
1 0 -0 -1 -1 -2 -3 -4 -4 -5 -6 -7 -8 -10 -10 -11 -11 -12 -12 -12 -13 -13 -13 -13 -13 -13 -13 -12 -13 -12 -11 -12 -12 -12 -12 -12 -12 -12 -12 -12 -12 -12 -12 -13
0 -1 -1 -2 -3 -3 -4 -6 -6 -7 -8 -9 -10 -10 -11 -11 -12 -12 -12 -12 -14 -13 -13 -14 -14 -14 -13 -13 -13 -12 -12 -12 -12 -11 -12 -12 -12 -12 -12 -12 -12 -13 -13 -14
-1 -1 -2 -2 -3 -5 -6 -7 -8 -9 -10 -11 -10 -11 -11 -11 -13 -13 -13 -14 -13 -13 -13 -14 -14 -14 -13 -13 -14 -13 -12 -12 -12 -12 -12 -12 -12 -12 -12 -13 -13 -13 -13 -14
-4 -5 -6 -5 -6 -6 -7 -8 -9 -11 -10 -10 -11 -11 -12 -12 -13 -13 -14 -13 -13 -13 -14 -14 -15 -14 -14 -14 -14 -13 -13 -13 -13 -12 -12 -13 -12 -12 -13 -13 -13 -13 -14 -14
-5 -6 -7 -8 -8 -8 -9 -10 -10 -11 -11 -11 -12 -13 -12 -14 -14 -13 -14 -13 -14 -15 -15 -15 -15 -15 -15 -14 -14 -14 -14 -13 -13 -13 -13 -13 -13 -13 -13 -13 -14 -14 -14 -15
-6 -7 -8 -8 -8 -8 -9 -10 -10 -12 -12 -12 -12 -13 -13 -14 -14 -14 -13 -13 -14 -15 -15 -15 -15 -16 -16 -15 -14 -14 -14 -15 -14 -14 -14 -14 -14 -14 -14 -14 -14 -15 -15 -15
-6 -7 -8 -8 -9 -9 -10 -11 -11 -12 -12 -13 -13 -13 -14 -13 -13 -13 -14 -15 -15 -16 -16 -15 -16 -15 -16 -16 -15 -15 -15 -16 -16 -15 -15 -15 -15 -15 -15 -15 -15 -15 -15 -15
-7 -8 -8 -9 -10 -11 -11 -11 -12 -12 -13 -13 -13 -13 -14 -14 -13 -14 -14 -15 -16 -16 -16 -16 -16 -16 -16 -16 -16 -16 -16 -16 -16 -16 -16 -16 -16 -16 -16 -16 -15 -16 -16 -16
-8 -9 -9 -10 -10 -12 -12 -13 -13 -13 -13 -14 -14 -14 -15 -14 -14 -14 -15 -16 -16 -16 -16 -16 -16 -17 -17 -17 -17 -17 -17 -17 -17 -17 -17 -17 -17 -17 -17 -17 -17 -17 -16 -16
-9 -10 -10 -11 -12 -11 -12 -13 -12 -13 -13 -13 -14 -14 -15 -15 -15 -16 -16 -16 -16 -17 -17 -17 -18 -18 -17 -17 -17 -18 -17 -18 -18 -18 -18 -18 -18 -18 -18 -18 -18 -18 -17 -16
-10 -10 -11 -11 -11 -11 -12 -12 -12 -13 -13 -13 -13 -14 -15 -15 -15 -16 -16 -16 -17 -17 -17 -17 -18 -18 -18 -18 -18 -18 -18 -18 -19 -19 -19 -19 -19 -19 -19 -19 -19 -19 -18 -17
-11 -11 -11 -12 -12 -12 -12 -12 -12 -13 -13 -14 -14 -15 -15 -15 -16 -16 -16 -16 -17 -17 -17 -17 -18 -18 -19 -19 -18 -18 -19 -19 -19 -19 -19 -19 -19 -19 -20 -20 -20 -20 -19 -17

GFSNGP_850_temp_150.txt.gz
Temp
11 12 12 12 11 12 11 11 9 10 11 9 9 8 7 6 5 4 3 3 2 1 0 -1 -2 -3 -3 -4 -5 -6 -6 -6 -6 -6 -6 -5 -4 -2 -1 -1 -0 -1 1 2
8 11 12 10 11 11 11 11 11 11 11 9 8 8 6 5 4 3 3 2 1 1 -0 -1 -2 -3 -4 -5 -5 -5 -6 -6 -6 -6 -6 -5 -5 -4 -2 -0 -1 0 2 -1
7 10 10 9 10 11 11 11 9 8 10 9 8 7 5 4 3 3 2 1 1 -0 -1 -2 -3 -3 -4 -5 -5 -5 -6 -7 -6 -6 -6 -6 -6 -5 -5 -3 -1 1 2 -2
8 9 7 10 12 11 11 10 10 10 9 8 7 6 5 3 2 2 1 0 -0 -1 -2 -2 -3 -3 -4 -5 -5 -6 -7 -7 -7 -7 -7 -6 -6 -6 -6 -5 -5 -4 -4 -4
7 8 9 9 9 9 9 9 10 9 8 7 6 6 4 2 2 1 0 -0 -1 -2 -2 -2 -3 -4 -5 -5 -5 -6 -7 -7 -7 -7 -7 -7 -7 -7 -6 -6 -6 -6 -5 -5
7 7 7 8 9 9 8 6 9 7 6 5 5 4 1 1 1 -0 -0 -1 -1 -2 -3 -3 -4 -4 -5 -5 -6 -7 -8 -8 -8 -8 -8 -8 -8 -7 -7 -7 -7 -7 -6 -6
6 6 8 9 8 7 5 5 5 4 4 2 1 1 1 1 -0 0 -0 -1 -2 -2 -3 -4 -4 -5 -5 -5 -7 -8 -8 -8 -9 -8 -8 -8 -8 -8 -8 -8 -7 -7 -7 -7
6 6 6 9 7 6 5 4 3 2 2 1 0 1 1 0 0 -0 -1 -1 -2 -3 -4 -4 -5 -6 -6 -7 -8 -9 -9 -9 -9 -9 -9 -9 -9 -9 -9 -9 -9 -8 -8 -7
7 7 8 8 5 4 4 3 2 1 0 1 2 2 0 -0 -1 -1 -1 -3 -4 -5 -5 -5 -6 -7 -7 -8 -9 -9 -10 -10 -9 -9 -9 -9 -9 -9 -9 -9 -10 -10 -10 -10
5 6 7 5 4 3 3 2 1 1 1 1 0 -0 -1 -2 -2 -3 -4 -5 -6 -6 -7 -7 -8 -8 -9 -9 -10 -10 -10 -10 -9 -10 -10 -10 -9 -9 -9 -9 -10 -10 -10 -11
5 6 6 5 4 2 1 0 1 1 0 -1 -1 -1 -2 -3 -4 -5 -7 -7 -8 -9 -9 -9 -10 -10 -10 -11 -11 -11 -11 -11 -10 -10 -10 -10 -10 -10 -10 -10 -10 -10 -11 -11
5 4 3 5 2 1 -0 -0 0 0 0 -1 -2 -3 -4 -4 -6 -8 -9 -10 -10 -11 -11 -11 -11 -11 -12 -12 -12 -12 -11 -10 -10 -11 -11 -10 -10 -10 -10 -10 -10 -11 -11 -11
6 5 4 3 2 1 0 0 -1 -1 -2 -2 -3 -5 -5 -7 -8 -9 -10 -10 -10 -10 -12 -12 -13 -12 -12 -12 -12 -12 -11 -10 -10 -11 -11 -10 -10 -10 -11 -11 -11 -11 -11 -12
4 3 3 3 2 1 0 -2 -2 -3 -3 -4 -5 -7 -8 -9 -9 -10 -10 -10 -11 -11 -13 -12 -13 -13 -12 -12 -12 -12 -11 -11 -11 -11 -11 -11 -11 -11 -11 -11 -11 -11 -12 -12
3 3 3 1 1 -0 -1 -1 -2 -3 -4 -5 -7 -8 -9 -10 -10 -11 -11 -11 -11 -13 -12 -13 -13 -13 -12 -12 -12 -12 -11 -11 -11 -11 -11 -11 -11 -11 -11 -12 -12 -12 -12 -12
2 2 1 1 0 -1 -1 -2 -3 -4 -5 -6 -8 -9 -10 -11 -11 -11 -11 -11 -12 -13 -12 -13 -13 -13 -13 -13 -13 -12 -12 -11 -12 -11 -11 -11 -12 -12 -12 -12 -12 -12 -13 -13
2 1 1 -0 -2 -2 -3 -4 -5 -6 -7 -8 -9 -9 -9 -10 -12 -11 -11 -12 -13 -13 -13 -13 -14 -14 -13 -13 -13 -13 -12 -12 -12 -12 -11 -12 -12 -12 -12 -12 -12 -13 -13 -14
0 0 -0 -1 -2 -4 -5 -6 -7 -8 -9 -8 -9 -10 -10 -10 -11 -11 -12 -12 -12 -13 -13 -14 -14 -14 -14 -14 -14 -13 -13 -13 -12 -12 -12 -12 -12 -12 -12 -12 -13 -13 -13 -14
-2 -3 -3 -4 -5 -6 -7 -7 -8 -8 -9 -9 -10 -10 -11 -12 -12 -12 -12 -12 -13 -13 -13 -14 -14 -14 -14 -14 -14 -13 -13 -13 -13 -13 -13 -13 -12 -12 -12 -13 -13 -13 -14 -14
-4 -5 -6 -6 -7 -7 -8 -7 -9 -9 -10 -10 -11 -11 -11 -12 -13 -13 -13 -13 -13 -14 -14 -14 -15 -15 -15 -15 -14 -14 -14 -14 -14 -14 -14 -13 -13 -13 -13 -13 -13 -14 -14 -15
-5 -7 -7 -6 -6 -7 -8 -8 -9 -10 -10 -11 -11 -11 -12 -13 -13 -13 -13 -13 -14 -14 -14 -15 -15 -15 -16 -15 -15 -15 -15 -15 -15 -15 -15 -15 -14 -14 -14 -14 -14 -14 -15 -15
-6 -6 -6 -7 -7 -8 -9 -9 -10 -10 -11 -11 -11 -12 -12 -13 -13 -13 -13 -14 -15 -15 -15 -15 -15 -15 -16 -16 -15 -16 -16 -16 -16 -16 -16 -16 -15 -15 -15 -15 -15 -15 -16 -16
-6 -7 -7 -8 -8 -9 -10 -10 -10 -11 -11 -12 -13 -13 -13 -14 -13 -13 -14 -15 -15 -16 -15 -16 -16 -16 -16 -16 -16 -16 -16 -16 -17 -17 -16 -16 -16 -16 -16 -17 -16 -16 -17 -16
-7 -7 -8 -9 -10 -10 -11 -11 -12 -12 -12 -13 -13 -14 -14 -14 -14 -14 -15 -15 -16 -16 -16 -16 -17 -17 -17 -17 -17 -17 -17 -17 -17 -17 -17 -17 -17 -17 -17 -17 -17 -18 -17 -17
-9 -9 -9 -9 -10 -11 -11 -11 -11 -12 -12 -12 -13 -13 -14 -14 -15 -15 -15 -15 -16 -16 -16 -17 -17 -17 -17 -17 -17 -17 -17 -17 -18 -18 -18 -18 -18 -18 -18 -18 -18 -19 -18 -18
-10 -10 -10 -10 -10 -10 -11 -11 -11 -12 -12 -12 -12 -13 -14 -14 -15 -15 -15 -16 -16 -16 -16 -17 -17 -18 -18 -18 -18 -18 -18 -18 -18 -19 -19 -19 -19 -19 -19 -19 -19 -19 -19 -18
-9 -10 -10 -11 -11 -11 -11 -11 -11 -12 -12 -13 -13 -13 -14 -15 -15 -15 -16 -16 -16 -16 -17 -17 -17 -17 -18 -18 -18 -18 -18 -19 -19 -19 -19 -19 -19 -19 -19 -19 -19 -19 -19 -18